[[{"header":{"parameterUnit":"m.s-1","parameterCategory":1,"la1":30.2991,"la2":30.254,"lo1":-89.0895,"lo2":-89.0444,"dy":0.0017,"dx":0.0017,"nx":28,"ny":28,"refTime":"2026-01-01T09:00:00:Z","depth":0,"parameterNumber":2,"parameterNumberName":"U-component_of_WINDS"},"data":[0,0,0,0,0,0,0,0,0,0,0,0,0,0,0,0,0,0,0,0,0,0,0,0,0,0,0,0,0,0,0,0,0,0,0,0,0,0,0,0,0,0,0,0,0,0,0,0,0,0,0,0,0,0,0,0,0,0,2.5092,2.5094,0,2.5287,2.529,2.5292,2.5323,2.5322,2.532,2.5318,2.5521,2.5528,2.5535,0,0,0,0,0,0,0,0,0,0,0,0,0,2.4749,2.4755,2.5091,2.5094,2.5096,2.5287,2.529,2.5292,2.5324,2.5322,2.532,2.5318,2.5519,2.5527,2.5536,0,0,0,0,0,0,0,0,0,0,0,0,0,2.4917,2.4757,2.5091,2.5135,2.5141,2.5286,2.529,2.5293,2.5324,2.5322,2.5319,2.5317,2.5516,2.5527,2.5537,2.5653,0,0,2.5569,2.5574,0,0,0,0,0,0,0,0,2.4907,2.4929,2.5126,2.5132,2.5139,2.5278,2.5243,2.5414,2.5325,2.5255,2.5318,2.5315,2.5443,2.5459,2.5502,2.5663,2.5671,2.557,2.5576,2.5581,2.5584,0,0,0,0,0,0,0,2.4895,2.4921,2.5169,2.5129,2.5137,2.5146,2.5167,2.5276,2.5361,2.5261,2.5263,2.5286,2.5446,2.5491,2.5507,2.5674,2.557,2.5579,2.5585,2.559,2.5942,2.5945,0,0,0,0,0,0,2.4875,2.4911,2.5163,2.5175,2.5014,2.5154,2.5178,2.5236,2.536,2.5376,2.5288,2.5287,2.5475,2.5494,2.5514,2.5658,2.5581,2.5591,2.5597,2.5939,2.5943,2.5946,0,0,0,0,0,0,2.4868,2.4898,2.5155,2.5044,2.5077,2.5163,2.5228,2.5241,2.5287,2.538,2.5396,2.5318,2.5473,2.5499,2.5618,2.5665,2.5595,2.5605,2.5935,2.594,2.5944,2.5947,0,0,0,0,0,0,2.4858,2.4895,2.4938,2.5045,2.5083,2.5255,2.5231,2.5247,2.5305,2.5305,2.5413,2.5429,2.5473,2.5602,2.5629,2.5678,2.5613,2.5932,2.5938,2.5943,2.5943,2.5951,2.5958,0,0,0,0,0,2.4846,2.4932,2.494,2.4971,2.5139,2.5257,2.5279,2.5328,2.5308,2.5354,2.5414,2.5425,2.5657,2.5614,2.5644,2.5698,2.5929,2.5936,2.5943,2.5939,2.5949,2.5957,0,0,0,0,0,0,2.4829,2.4946,2.4957,2.508,2.5158,2.5262,2.5321,2.5337,2.5423,2.542,2.5478,2.5503,2.5619,2.5671,2.5622,2.5818,2.5791,2.5804,2.5779,2.5789,2.5796,2.578,2.5622,0,0,0,0,0,2.484,2.4925,2.5023,2.5122,2.5161,2.5234,2.5287,2.5318,2.5402,2.5436,2.5505,2.5587,2.5678,2.5737,2.5826,2.5952,2.5976,2.6004,2.6011,2.6017,2.6026,2.6097,2.6111,2.5969,2.5969,2.5969,0,0,2.4862,2.4937,2.4987,2.512,2.5185,2.5272,2.5262,2.5355,2.542,2.545,2.5566,2.562,2.5716,2.5839,2.5896,2.5886,2.6072,2.6025,2.6029,2.6036,2.6106,2.6119,2.6131,2.5973,2.5973,2.5972,0,0,2.4948,2.5013,2.5102,2.5168,2.5265,2.5314,2.5336,2.5438,2.5475,2.5592,2.5617,2.5697,2.5853,2.592,2.5974,2.6089,2.6102,2.6117,2.6154,2.6223,2.6234,2.6244,2.6284,2.6297,2.6127,2.6127,2.6127,0,2.4963,2.5095,2.5147,2.5239,2.5297,2.5329,2.542,2.5481,2.5603,2.5644,2.563,2.5827,2.5894,2.6033,2.6061,2.6104,2.6131,2.6103,2.6228,2.6239,2.6249,2.6287,2.6302,2.6128,2.6128,2.6128,2.6127,0,2.511,2.5201,2.5262,2.5378,2.5444,2.5535,2.5602,2.5663,2.5689,2.574,2.586,2.5942,2.6048,2.6084,2.6111,2.6228,2.6218,2.6216,2.619,2.6262,2.6299,2.6315,2.6129,2.6129,2.6128,2.6128,0,0,2.5187,2.5332,2.5353,2.5407,2.5518,2.559,2.5685,2.5788,2.5839,2.5924,2.6004,2.6136,2.6135,2.6197,2.6233,2.6293,2.6377,2.6284,2.6287,2.6297,2.6511,2.651,2.6526,2.6388,2.6391,2.6394,2.6502,0,2.5284,2.545,2.5501,2.5641,2.5726,2.5759,2.5842,2.592,2.597,2.6051,2.6108,2.6201,2.6193,2.623,2.6292,2.6354,2.6421,2.6347,2.6464,2.6467,2.6436,2.6546,2.6545,2.6643,2.6517,2.652,2.6522,0,2.5418,2.5504,2.5653,2.5755,2.5792,2.5865,2.5964,2.6042,2.6132,2.6165,2.6235,2.6266,2.6367,2.6338,2.6478,2.6426,2.6478,2.6516,2.6521,2.6532,2.6496,2.6558,2.6675,2.6689,2.6545,2.6543,2.6542,0,2.5458,2.5611,2.572,2.5765,2.5887,2.5937,2.5991,2.6078,2.6138,2.6226,2.6265,2.6364,2.6418,2.6495,2.6552,2.6526,2.6688,2.6663,2.6718,2.6716,2.6748,2.6744,2.6873,2.6785,2.6784,2.6784,2.6784,0,2.556,2.5649,2.5739,2.5806,2.5908,2.5966,2.6066,2.6121,2.6199,2.6278,2.6314,2.6388,2.646,2.6544,2.659,2.6699,2.6724,2.6753,2.6764,2.6749,2.6745,2.6781,2.6775,2.6788,2.6787,2.6786,2.6786,0,2.5619,2.5683,2.5804,2.591,2.5939,2.6009,2.61,2.6167,2.6221,2.632,2.6347,2.6431,2.6532,2.6597,2.6726,2.6757,2.6876,2.6886,2.6844,2.6849,2.6899,2.6893,2.7054,2.7078,2.6975,2.6976,2.6977,0,2.5678,2.5748,2.5861,2.5916,2.597,2.6058,2.6119,2.6181,2.6243,2.6353,2.6406,2.6509,2.6594,2.6754,2.6827,2.6927,2.6938,2.6988,2.6953,2.6936,2.6937,2.6931,2.6938,2.6992,2.6993,2.6994,2.6995,0,2.5776,2.5805,2.5891,2.5989,2.6061,2.6141,2.6221,2.6265,2.6341,2.6409,2.6512,2.6578,2.671,2.6812,2.6918,2.6975,2.6998,2.7006,2.7023,2.7007,2.6979,2.6993,2.6857,2.7001,2.7,2.7,2.6999,2.6999,2.5836,2.59,2.599,2.6085,2.6152,2.6227,2.6295,2.6357,2.6443,2.6554,2.6587,2.6694,2.6785,2.693,2.6989,2.7075,2.7069,2.7095,2.7101,2.7106,2.7105,2.6968,2.7095,2.7095,2.7094,2.7094,2.7094,0,2.5934,2.5995,2.6082,2.6193,2.6268,2.6284,2.6374,2.6436,2.653,2.6613,2.6696,2.6815,2.6915,2.6997,2.71,2.7153,2.7166,2.7178,2.7173,2.7186,2.7105,2.7078,2.7165,2.7165,2.7165,2.7165,2.7165,2.7165,2.5994,2.6102,2.6142,2.6284,2.6345,2.6449,2.6499,2.6569,2.6635,2.6766,2.6849,2.6902,2.6985,2.7095,2.7187,2.7209,2.7245,2.7254,2.7277,2.72,2.7191,2.7184,2.7159,2.7261,2.7262,2.7351,2.7352,2.7352]},{"header":{"parameterUnit":"m.s-1","parameterCategory":1,"la1":30.2991,"la2":30.254,"lo1":-89.0895,"lo2":-89.0444,"dy":0.0017,"dx":0.0017,"nx":28,"ny":28,"refTime":"2026-01-01T09:00:00:Z","depth":0,"parameterNumber":3,"parameterNumberName":"V-component_of_WINDS"},"data":[0,0,0,0,0,0,0,0,0,0,0,0,0,0,0,0,0,0,0,0,0,0,0,0,0,0,0,0,0,0,0,0,0,0,0,0,0,0,0,0,0,0,0,0,0,0,0,0,0,0,0,0,0,0,0,0,0,0,1.8495,1.8496,0,1.8592,1.8593,1.8594,1.8624,1.8623,1.8623,1.8622,1.8717,1.872,1.8722,0,0,0,0,0,0,0,0,0,0,0,0,0,1.8332,1.8335,1.8495,1.8497,1.8498,1.8592,1.8593,1.8594,1.8624,1.8623,1.8623,1.8622,1.8716,1.8719,1.8723,0,0,0,0,0,0,0,0,0,0,0,0,0,1.8413,1.8336,1.8495,1.8524,1.8527,1.8592,1.8593,1.8595,1.8624,1.8623,1.8622,1.8622,1.8715,1.8719,1.8723,1.8764,0,0,1.8737,1.8739,0,0,0,0,0,0,0,0,1.8409,1.8419,1.8518,1.8522,1.8526,1.8595,1.857,1.8651,1.8624,1.8587,1.8622,1.8621,1.8676,1.8684,1.8703,1.8769,1.8773,1.8737,1.874,1.8742,1.8743,0,0,0,0,0,0,0,1.8403,1.8415,1.8533,1.852,1.8524,1.8531,1.8541,1.8586,1.8634,1.859,1.8593,1.8604,1.8678,1.8699,1.8706,1.8774,1.8737,1.8741,1.8744,1.8745,1.8878,1.8879,0,0,0,0,0,0,1.8393,1.841,1.853,1.8536,1.8465,1.8534,1.8546,1.8574,1.8634,1.8643,1.8604,1.8605,1.8692,1.8701,1.8709,1.8762,1.8742,1.8746,1.8748,1.8877,1.8878,1.8879,0,0,0,0,0,0,1.8389,1.8404,1.8526,1.8474,1.849,1.8538,1.8568,1.8576,1.8597,1.8645,1.8653,1.8617,1.8692,1.8703,1.8751,1.8765,1.8748,1.8752,1.8876,1.8878,1.8879,1.8867,0,0,0,0,0,0,1.8385,1.8402,1.8419,1.8474,1.8493,1.8568,1.8569,1.8578,1.8605,1.8606,1.8659,1.8667,1.8692,1.8744,1.8755,1.8771,1.8755,1.8875,1.8877,1.8878,1.8866,1.8867,1.8869,0,0,0,0,0,1.8379,1.8411,1.842,1.8434,1.8516,1.8568,1.8579,1.8609,1.8606,1.8623,1.8654,1.8665,1.8762,1.8749,1.8761,1.8779,1.8874,1.8876,1.8878,1.8865,1.8867,1.8869,0,0,0,0,0,0,1.8355,1.8419,1.8429,1.8481,1.8519,1.8573,1.8596,1.861,1.8648,1.8648,1.8682,1.8694,1.8739,1.8764,1.8748,1.8822,1.8818,1.8823,1.8804,1.8806,1.8808,1.8801,1.8759,0,0,0,0,0,1.8356,1.8394,1.8448,1.8488,1.8507,1.8548,1.8572,1.8592,1.8632,1.8648,1.8682,1.872,1.8759,1.8784,1.8823,1.887,1.8881,1.8888,1.8889,1.889,1.8893,1.892,1.8924,1.8886,1.8886,1.8886,0,0,1.8357,1.8397,1.8419,1.8484,1.8516,1.8554,1.8561,1.8601,1.863,1.8654,1.8702,1.8728,1.8772,1.882,1.8842,1.8842,1.8907,1.8893,1.8893,1.8896,1.8922,1.8926,1.8929,1.8887,1.8887,1.8887,0,0,1.838,1.8414,1.8452,1.8484,1.8533,1.856,1.8569,1.8622,1.8641,1.869,1.8708,1.8742,1.8808,1.8839,1.8864,1.8898,1.891,1.891,1.8917,1.8942,1.8945,1.8948,1.896,1.8964,1.8913,1.8913,1.8913,0,1.8376,1.8436,1.8468,1.8508,1.8536,1.8561,1.8598,1.8628,1.8686,1.8704,1.8703,1.8787,1.8819,1.8874,1.8882,1.8901,1.8912,1.8904,1.8942,1.8945,1.8948,1.8961,1.8965,1.8913,1.8913,1.8913,1.8913,0,1.8428,1.8469,1.8493,1.8551,1.8581,1.8619,1.8656,1.8683,1.87,1.8727,1.8776,1.8814,1.8861,1.8876,1.8892,1.8933,1.8932,1.8936,1.8933,1.8951,1.8963,1.8968,1.8912,1.8912,1.8913,1.8913,0,0,1.8438,1.8514,1.8522,1.8549,1.8605,1.8637,1.8675,1.8723,1.8745,1.8784,1.8817,1.8873,1.8878,1.8905,1.8925,1.8948,1.8973,1.8949,1.8951,1.8952,1.902,1.9016,1.9021,1.8981,1.8982,1.8983,1.9016,0,1.8468,1.854,1.8571,1.8629,1.8667,1.8691,1.8725,1.8762,1.8789,1.8824,1.8852,1.8891,1.8894,1.8911,1.8935,1.8965,1.8987,1.8963,1.9011,1.9012,1.8999,1.9027,1.9024,1.9053,1.9021,1.9022,1.9022,0,1.8512,1.8554,1.8616,1.8668,1.8685,1.8715,1.8761,1.8795,1.8837,1.8855,1.8886,1.8905,1.8945,1.894,1.8996,1.8979,1.9,1.9018,1.902,1.9025,1.9018,1.9033,1.9064,1.9068,1.903,1.9029,1.9029,0,1.8513,1.8584,1.8631,1.8653,1.8715,1.8735,1.8762,1.8804,1.883,1.887,1.8887,1.893,1.8954,1.8986,1.9016,1.9009,1.9069,1.9066,1.9084,1.9083,1.9095,1.9094,1.9129,1.9109,1.9109,1.9109,1.9108,0,1.8544,1.858,1.8632,1.8661,1.8703,1.8737,1.8777,1.8805,1.8842,1.8875,1.8898,1.8929,1.8967,1.9002,1.9025,1.9067,1.9078,1.9092,1.9098,1.909,1.9088,1.9104,1.9103,1.911,1.9109,1.9109,1.9109,0,1.8552,1.8588,1.864,1.8695,1.871,1.8738,1.8784,1.8812,1.8839,1.8881,1.8893,1.8936,1.8978,1.9011,1.9066,1.9081,1.9126,1.9132,1.9112,1.9115,1.9131,1.9129,1.9178,1.9186,1.916,1.916,1.916,0,1.8568,1.8598,1.8656,1.8681,1.8708,1.8747,1.8775,1.881,1.8837,1.8888,1.891,1.8954,1.8992,1.9058,1.9093,1.9134,1.9142,1.9156,1.9148,1.9139,1.9142,1.914,1.9143,1.9157,1.9157,1.9157,1.9157,0,1.8594,1.8611,1.8651,1.8698,1.8731,1.8768,1.8806,1.8825,1.8866,1.8896,1.8941,1.897,1.9027,1.907,1.9116,1.9141,1.9156,1.9159,1.9166,1.9158,1.9145,1.9152,1.9115,1.9158,1.9158,1.9158,1.9158,1.9158,1.8607,1.8635,1.868,1.8724,1.8757,1.8792,1.8821,1.8853,1.8891,1.8941,1.8959,1.9005,1.9046,1.9109,1.9135,1.917,1.9171,1.918,1.9182,1.9184,1.9183,1.914,1.9179,1.9179,1.9179,1.9179,1.9179,0,1.8635,1.8665,1.8705,1.8759,1.8793,1.8806,1.8849,1.8876,1.8917,1.8955,1.8992,1.9042,1.9085,1.9123,1.9167,1.9188,1.9196,1.9198,1.9197,1.9203,1.918,1.9171,1.9191,1.9191,1.9191,1.9191,1.9191,1.9191,1.8653,1.87,1.8722,1.8785,1.8815,1.8861,1.8885,1.8917,1.8948,1.9004,1.904,1.9066,1.9104,1.9151,1.919,1.92,1.9215,1.9216,1.9227,1.9206,1.9204,1.9202,1.9193,1.9219,1.9219,1.9247,1.9247,1.9247]}]]